Driggs, ID

3:58 AM MDT on April 23, 2018 (GMT -0600)
Driggs

Weather History for KDIJ - June, 2013

Change the Weather History Date:

Friday, June 14, 2013

  Actual Average (KJAC) Record (KJAC)
Temperature  
Mean Temperature 48 °F -  
Max Temperature 59 °F 68 °F 81 °F (1959)
Min Temperature 37 °F 35 °F 25 °F (1981)
Degree Days  
Heating Degree Days 16    
Moisture  
Dew Point 30 °F    
Average Humidity 52    
Maximum Humidity 86    
Minimum Humidity 25    
Precipitation  
Precipitation 0.00 in - - ()
Sea Level Pressure  
Sea Level Pressure 30.05 in    
Wind  
Wind Speed 10 mph (SSW)    
Max Wind Speed 16 mph    
Max Gust Speed 16 mph    
Visibility 10 miles    
Events      
Averages and records for this station are not official NWS values.
T = Trace of Precipitation, MM = Missing Value Source: NWS Daily Summary

Daily Weather History Graph

Daily Weather History Graph

Search for Another Location

Airport or City:

Astronomy

Jun. 14, 2013 Rise Set
Actual Time 5:41 AM MDT 9:07 PM MDT
Civil Twilight 5:05 AM MDT 9:43 PM MDT
Nautical Twilight 4:18 AM MDT 10:30 PM MDT
Astronomical Twilight 3:19 AM MDT 11:30 PM MDT
Moon 11:30 AM MDT (6/14) 12:06 AM MDT (6/14)
Length of Visible Light 16h 37m
Length of Day
15h 25m
Waxing Crescent, 31% of the Moon is Illuminated
Jun 14
Waxing Crescent
Jun 16
First Quarter
Jun 23
Full
Jun 29
Last Quarter
Jul 8
New

Hourly Weather History & Observations

Time (MDT) Temp. Windchill Dew Point Humidity Pressure Visibility Wind Dir Wind Speed Gust Speed Precip Events Conditions
12:56 AM 41.0 °F 37.1 °F 36.0 °F 82% 29.90 in 10.0 mi East 5.8 mph - N/A   Clear
1:56 AM 39.9 °F 34.5 °F 36.0 °F 86% 29.92 in 10.0 mi SSE 8.1 mph - N/A   Clear
2:56 AM 41.9 °F 35.9 °F 34.9 °F 76% 29.94 in 10.0 mi South 10.4 mph - N/A   Clear
3:56 AM 43.0 °F 36.8 °F 32.9 °F 68% 29.93 in 10.0 mi South 11.5 mph - N/A   Clear
4:56 AM 41.9 °F 35.0 °F 32.0 °F 68% 29.95 in 10.0 mi South 12.7 mph - N/A   Scattered Clouds
5:56 AM 41.9 °F 34.6 °F 31.1 °F 66% 29.96 in 10.0 mi South 13.8 mph - N/A   Mostly Cloudy
6:56 AM 41.0 °F 33.9 °F 31.1 °F 68% 30.02 in 10.0 mi South 12.7 mph - N/A   Clear
7:56 AM 43.0 °F 35.4 °F 31.1 °F 63% 30.06 in 10.0 mi South 16.1 mph - N/A   Clear
8:56 AM 45.0 °F 38.5 °F 30.0 °F 56% 30.08 in 10.0 mi South 13.8 mph - N/A   Clear
9:56 AM 47.8 °F - 29.1 °F 48% 30.10 in 10.0 mi SSW 13.8 mph - N/A   Clear
10:56 AM 50.9 °F - 28.0 °F 41% 30.07 in 10.0 mi WSW 12.7 mph - N/A   Clear
11:56 AM 52.0 °F - 28.0 °F 40% 30.08 in 10.0 mi SW 9.2 mph 16.1 mph N/A   Clear
12:56 PM 52.9 °F - 27.1 °F 37% 30.10 in 10.0 mi WSW 10.4 mph 16.1 mph N/A   Scattered Clouds
1:56 PM 52.9 °F - 29.1 °F 40% 30.09 in 10.0 mi Variable 5.8 mph - N/A   Partly Cloudy
2:20 PM 55.4 °F - 28.4 °F 36% 30.22 in 10.0 mi SW 9.2 mph - N/A   Partly Cloudy
2:56 PM 56.8 °F - 30.0 °F 36% 30.07 in 10.0 mi SSW 16.1 mph - N/A   Clear
3:56 PM 57.9 °F - 28.0 °F 32% 30.06 in 10.0 mi WSW 11.5 mph - N/A   Partly Cloudy
4:56 PM 57.9 °F - 27.1 °F 31% 30.06 in 10.0 mi SW 8.1 mph - N/A   Clear
5:56 PM 59.0 °F - 25.2 °F 27% 30.04 in 10.0 mi SW 11.5 mph 16.1 mph N/A   Clear
6:56 PM 57.9 °F - 25.2 °F 28% 30.05 in 10.0 mi SW 8.1 mph - N/A   Clear
7:56 PM 56.8 °F - 21.0 °F 25% 30.05 in 10.0 mi SW 8.1 mph - N/A   Clear
8:56 PM 47.8 °F - 32.0 °F 54% 30.08 in 10.0 mi South 5.8 mph - N/A   Clear
9:56 PM 43.9 °F 40.5 °F 31.1 °F 61% 30.10 in 10.0 mi SE 5.8 mph - N/A   Clear
10:56 PM 38.8 °F 32.1 °F 30.0 °F 71% 30.12 in 10.0 mi East 10.4 mph - N/A   Clear
11:56 PM 37.9 °F - 29.1 °F 71% 30.12 in 10.0 mi Calm Calm - N/A   Clear